QPF
0.00 0.00 0.00 0.01 0.01 0.01 0.01 0.01 0.02 0.02 0.03 0.04 0.04 0.05 0.05 0.04 0.04 0.04 0.05 0.06 0.10 0.11 0.09 0.12 0.12 0.06 0.06 0.10 0.10 0.08 0.10 0.11 0.10 0.10 0.09 0.10 0.11 0.13 0.13 0.13 0.14 0.16 0.18
0.01 0.00 0.00 0.01 0.01 0.01 0.01 0.01 0.01 0.01 0.02 0.03 0.04 0.06 0.06 0.05 0.04 0.05 0.05 0.05 0.08 0.11 0.11 0.14 0.14 0.08 0.07 0.09 0.13 0.11 0.09 0.08 0.09 0.09 0.10 0.12 0.12 0.14 0.12 0.11 0.12 0.13 0.13
0.01 0.01 0.01 0.01 0.01 0.01 0.02 0.01 0.01 0.02 0.02 0.02 0.04 0.06 0.08 0.08 0.06 0.05 0.05 0.05 0.07 0.09 0.11 0.13 0.13 0.09 0.07 0.10 0.12 0.15 0.12 0.07 0.07 0.06 0.09 0.10 0.09 0.11 0.12 0.11 0.10 0.10 0.10
0.01 0.01 0.00 0.01 0.01 0.01 0.02 0.01 0.02 0.03 0.03 0.04 0.04 0.06 0.09 0.11 0.10 0.07 0.06 0.05 0.04 0.05 0.07 0.10 0.10 0.08 0.08 0.10 0.11 0.13 0.16 0.12 0.09 0.07 0.07 0.08 0.07 0.07 0.09 0.10 0.08 0.07 0.07
0.01 0.01 0.01 0.01 0.01 0.02 0.02 0.02 0.03 0.04 0.04 0.04 0.05 0.07 0.10 0.11 0.11 0.09 0.06 0.04 0.04 0.04 0.04 0.05 0.06 0.07 0.09 0.09 0.11 0.14 0.17 0.16 0.13 0.11 0.09 0.09 0.08 0.07 0.07 0.08 0.08 0.07 0.06
0.00 0.00 0.01 0.01 0.01 0.02 0.02 0.02 0.04 0.05 0.06 0.05 0.05 0.06 0.08 0.09 0.10 0.09 0.06 0.04 0.03 0.03 0.03 0.04 0.04 0.05 0.07 0.08 0.10 0.12 0.14 0.15 0.14 0.13 0.12 0.12 0.11 0.11 0.09 0.07 0.07 0.06 0.05
0.01 0.00 0.01 0.01 0.01 0.02 0.04 0.06 0.08 0.09 0.08 0.06 0.06 0.05 0.05 0.06 0.06 0.06 0.06 0.04 0.03 0.02 0.03 0.03 0.03 0.03 0.05 0.05 0.07 0.10 0.10 0.12 0.13 0.12 0.13 0.14 0.11 0.11 0.10 0.09 0.07 0.06 0.04
0.00 0.00 0.01 0.01 0.01 0.01 0.04 0.09 0.10 0.08 0.08 0.08 0.07 0.05 0.04 0.04 0.03 0.04 0.05 0.04 0.03 0.02 0.03 0.03 0.02 0.03 0.03 0.03 0.04 0.06 0.07 0.09 0.10 0.10 0.11 0.13 0.11 0.10 0.10 0.09 0.07 0.06 0.05
0.00 0.00 0.00 0.00 0.00 0.01 0.03 0.07 0.08 0.05 0.04 0.04 0.04 0.03 0.03 0.03 0.03 0.02 0.03 0.02 0.03 0.03 0.03 0.03 0.02 0.03 0.03 0.04 0.06 0.06 0.06 0.07 0.08 0.07 0.08 0.09 0.09 0.09 0.09 0.09 0.08 0.06 0.05
0.00 0.00 0.00 0.00 0.00 0.01 0.02 0.03 0.04 0.04 0.03 0.03 0.03 0.03 0.03 0.03 0.04 0.03 0.02 0.02 0.02 0.03 0.03 0.03 0.03 0.04 0.04 0.04 0.05 0.04 0.05 0.06 0.06 0.06 0.06 0.06 0.07 0.09 0.09 0.08 0.08 0.07 0.06
0.00 0.00 0.00 0.00 0.00 0.01 0.02 0.01 0.02 0.02 0.02 0.02 0.02 0.03 0.03 0.02 0.03 0.02 0.01 0.02 0.03 0.03 0.03 0.03 0.03 0.03 0.03 0.03 0.03 0.03 0.03 0.03 0.04 0.04 0.04 0.04 0.05 0.09 0.11 0.10 0.09 0.07 0.06
0.00 0.00 0.00 0.00 0.01 0.01 0.02 0.01 0.01 0.01 0.02 0.03 0.02 0.03 0.03 0.02 0.02 0.02 0.02 0.02 0.03 0.03 0.02 0.03 0.04 0.03 0.03 0.03 0.03 0.03 0.02 0.02 0.02 0.02 0.03 0.04 0.04 0.06 0.09 0.09 0.07 0.07 0.06
0.00 0.00 0.00 0.00 0.01 0.02 0.02 0.02 0.01 0.01 0.01 0.02 0.02 0.02 0.03 0.02 0.02 0.02 0.02 0.01 0.02 0.03 0.02 0.03 0.03 0.03 0.03 0.03 0.02 0.02 0.02 0.02 0.02 0.03 0.03 0.04 0.04 0.06 0.08 0.07 0.07 0.06 0.05
0.00 0.01 0.01 0.01 0.01 0.01 0.02 0.02 0.02 0.01 0.01 0.02 0.03 0.03 0.03 0.02 0.01 0.01 0.01 0.01 0.01 0.01 0.01 0.04 0.04 0.03 0.03 0.02 0.02 0.03 0.03 0.02 0.03 0.03 0.02 0.02 0.03 0.05 0.07 0.05 0.05 0.06 0.06
0.01 0.01 0.01 0.01 0.01 0.01 0.01 0.02 0.01 0.01 0.01 0.02 0.02 0.03 0.03 0.03 0.02 0.02 0.01 0.01 0.01 0.01 0.01 0.02 0.02 0.03 0.04 0.03 0.02 0.03 0.02 0.02 0.03 0.02 0.02 0.02 0.02 0.03 0.04 0.04 0.05 0.06 0.06
0.01 0.01 0.01 0.01 0.01 0.01 0.01 0.02 0.02 0.01 0.01 0.01 0.02 0.03 0.04 0.02 0.01 0.02 0.01 0.01 0.01 0.01 0.01 0.01 0.01 0.01 0.01 0.03 0.04 0.03 0.03 0.02 0.02 0.02 0.02 0.02 0.02 0.02 0.03 0.03 0.04 0.05 0.05
0.02 0.02 0.02 0.02 0.02 0.01 0.02 0.02 0.02 0.02 0.01 0.01 0.01 0.01 0.01 0.01 0.01 0.01 0.01 0.01 0.01 0.01 0.01 0.01 0.01 0.01 0.01 0.01 0.02 0.03 0.04 0.04 0.03 0.02 0.02 0.03 0.02 0.02 0.02 0.02 0.03 0.03 0.04
0.01 0.02 0.02 0.03 0.04 0.04 0.04 0.04 0.03 0.02 0.02 0.01 0.01 0.00 0.00 0.00 0.00 0.01 0.02 0.03 0.02 0.02 0.01 0.01 0.01 0.01 0.01 0.01 0.01 0.02 0.03 0.04 0.04 0.03 0.02 0.03 0.02 0.02 0.02 0.02 0.03 0.03 0.03
0.02 0.02 0.01 0.01 0.01 0.01 0.02 0.03 0.03 0.02 0.02 0.02 0.02 0.01 0.01 0.01 0.01 0.01 0.03 0.03 0.03 0.02 0.02 0.01 0.02 0.02 0.02 0.01 0.02 0.02 0.03 0.03 0.03 0.03 0.02 0.03 0.02 0.02 0.02 0.02 0.04 0.05 0.04
0.02 0.02 0.02 0.02 0.03 0.02 0.02 0.03 0.03 0.03 0.03 0.02 0.02 0.02 0.02 0.02 0.02 0.01 0.02 0.03 0.03 0.03 0.03 0.02 0.02 0.01 0.01 0.02 0.02 0.03 0.03 0.03 0.03 0.03 0.03 0.03 0.02 0.02 0.02 0.02 0.04 0.04 0.04
0.01 0.02 0.02 0.03 0.03 0.03 0.03 0.03 0.03 0.03 0.04 0.04 0.03 0.03 0.02 0.02 0.02 0.02 0.02 0.03 0.03 0.04 0.04 0.03 0.02 0.02 0.02 0.03 0.03 0.04 0.03 0.03 0.04 0.05 0.05 0.03 0.02 0.02 0.02 0.02 0.03 0.03 0.02
0.01 0.02 0.02 0.02 0.02 0.02 0.02 0.02 0.03 0.03 0.03 0.04 0.04 0.04 0.03 0.02 0.02 0.02 0.02 0.02 0.02 0.02 0.03 0.03 0.02 0.02 0.03 0.05 0.07 0.07 0.05 0.05 0.06 0.06 0.06 0.05 0.04 0.03 0.02 0.01 0.02 0.02 0.02
0.02 0.02 0.02 0.02 0.02 0.02 0.02 0.02 0.02 0.03 0.03 0.03 0.03 0.03 0.03 0.03 0.03 0.03 0.03 0.02 0.01 0.01 0.01 0.01 0.01 0.02 0.01 0.02 0.02 0.04 0.04 0.03 0.03 0.04 0.06 0.06 0.05 0.03 0.02 0.02 0.03 0.04 0.03
0.03 0.02 0.02 0.02 0.01 0.02 0.02 0.02 0.02 0.03 0.04 0.03 0.02 0.02 0.02 0.02 0.02 0.03 0.03 0.02 0.01 0.02 0.02 0.01 0.01 0.02 0.02 0.01 0.01 0.01 0.01 0.01 0.01 0.02 0.02 0.02 0.02 0.02 0.02 0.02 0.03 0.04 0.02
0.03 0.02 0.02 0.02 0.02 0.03 0.02 0.02 0.02 0.02 0.03 0.03 0.03 0.02 0.02 0.02 0.02 0.01 0.01 0.01 0.01 0.01 0.01 0.02 0.02 0.02 0.02 0.02 0.01 0.01 0.01 0.01 0.01 0.01 0.01 0.01 0.01 0.01 0.02 0.02 0.03 0.03 0.02
0.04 0.03 0.03 0.02 0.03 0.04 0.03 0.02 0.02 0.02 0.02 0.02 0.02 0.02 0.02 0.02 0.02 0.02 0.02 0.01 0.01 0.01 0.01 0.01 0.02 0.01 0.01 0.01 0.01 0.01 0.02 0.02 0.02 0.02 0.01 0.01 0.01 0.02 0.02 0.02 0.02 0.02 0.02
MSLP
1012.93 1013.03 1013.17 1013.29 1013.34 1013.30 1013.16 1012.93 1012.64 1012.33 1012.04 1011.81 1011.63 1011.51 1011.44 1011.39 1011.32 1011.21 1011.05 1010.85 1010.61 1010.36 1010.13 1009.95 1009.85 1009.84 1009.95 1010.16 1010.48 1010.91 1011.41 1011.98 1012.60 1013.23 1013.86 1014.45 1014.97 1015.42 1015.77 1016.04 1016.23 1016.39 1016.52
1013.30 1013.40 1013.53 1013.63 1013.68 1013.64 1013.51 1013.30 1013.04 1012.77 1012.52 1012.31 1012.15 1012.03 1011.93 1011.83 1011.71 1011.55 1011.35 1011.12 1010.88 1010.64 1010.42 1010.27 1010.17 1010.16 1010.24 1010.40 1010.66 1011.01 1011.44 1011.96 1012.55 1013.19 1013.84 1014.48 1015.07 1015.59 1016.00 1016.30 1016.51 1016.63 1016.71
1013.59 1013.71 1013.85 1013.96 1014.00 1013.96 1013.84 1013.66 1013.44 1013.22 1013.01 1012.83 1012.69 1012.56 1012.44 1012.31 1012.15 1011.95 1011.71 1011.46 1011.21 1010.98 1010.78 1010.64 1010.55 1010.52 1010.56 1010.67 1010.85 1011.11 1011.46 1011.90 1012.44 1013.05 1013.71 1014.39 1015.03 1015.61 1016.09 1016.43 1016.66 1016.78 1016.83
1013.79 1013.96 1014.12 1014.23 1014.28 1014.25 1014.14 1013.98 1013.79 1013.60 1013.43 1013.29 1013.18 1013.06 1012.94 1012.79 1012.60 1012.38 1012.12 1011.86 1011.61 1011.39 1011.21 1011.07 1010.99 1010.94 1010.94 1010.97 1011.07 1011.22 1011.47 1011.82 1012.27 1012.83 1013.47 1014.15 1014.83 1015.47 1016.00 1016.40 1016.67 1016.82 1016.88
1013.93 1014.15 1014.34 1014.47 1014.51 1014.48 1014.38 1014.22 1014.06 1013.90 1013.77 1013.66 1013.57 1013.47 1013.36 1013.21 1013.02 1012.79 1012.54 1012.29 1012.05 1011.85 1011.68 1011.56 1011.47 1011.40 1011.35 1011.32 1011.32 1011.37 1011.50 1011.73 1012.08 1012.55 1013.14 1013.80 1014.49 1015.16 1015.74 1016.21 1016.55 1016.75 1016.85
1014.03 1014.30 1014.52 1014.66 1014.71 1014.67 1014.56 1014.41 1014.25 1014.11 1013.99 1013.91 1013.84 1013.76 1013.67 1013.54 1013.36 1013.15 1012.92 1012.69 1012.48 1012.30 1012.16 1012.06 1011.97 1011.88 1011.79 1011.70 1011.61 1011.55 1011.55 1011.66 1011.89 1012.26 1012.76 1013.37 1014.04 1014.72 1015.35 1015.89 1016.30 1016.59 1016.76
1014.13 1014.45 1014.70 1014.85 1014.89 1014.84 1014.72 1014.56 1014.39 1014.25 1014.14 1014.06 1014.00 1013.94 1013.86 1013.75 1013.60 1013.42 1013.22 1013.03 1012.86 1012.71 1012.60 1012.52 1012.43 1012.34 1012.22 1012.08 1011.91 1011.76 1011.66 1011.64 1011.74 1011.99 1012.39 1012.92 1013.54 1014.21 1014.87 1015.46 1015.96 1016.34 1016.60
1014.24 1014.60 1014.87 1015.03 1015.07 1015.01 1014.87 1014.70 1014.52 1014.36 1014.24 1014.15 1014.09 1014.04 1013.97 1013.87 1013.75 1013.60 1013.43 1013.28 1013.14 1013.04 1012.96 1012.90 1012.83 1012.74 1012.61 1012.43 1012.22 1012.00 1011.80 1011.67 1011.66 1011.78 1012.07 1012.50 1013.05 1013.69 1014.35 1014.98 1015.55 1016.01 1016.38
1014.35 1014.73 1015.02 1015.19 1015.24 1015.18 1015.04 1014.86 1014.67 1014.50 1014.36 1014.26 1014.18 1014.12 1014.05 1013.95 1013.84 1013.71 1013.57 1013.45 1013.34 1013.27 1013.22 1013.18 1013.14 1013.06 1012.93 1012.75 1012.51 1012.25 1011.98 1011.77 1011.66 1011.67 1011.83 1012.16 1012.62 1013.19 1013.83 1014.48 1015.09 1015.63 1016.08
1014.43 1014.82 1015.12 1015.31 1015.38 1015.34 1015.22 1015.05 1014.87 1014.70 1014.55 1014.43 1014.33 1014.24 1014.15 1014.04 1013.92 1013.80 1013.67 1013.55 1013.47 1013.41 1013.38 1013.36 1013.34 1013.28 1013.17 1012.99 1012.76 1012.48 1012.19 1011.93 1011.73 1011.65 1011.71 1011.92 1012.28 1012.78 1013.36 1013.99 1014.62 1015.20 1015.71
1014.42 1014.82 1015.14 1015.35 1015.46 1015.46 1015.39 1015.27 1015.11 1014.96 1014.82 1014.68 1014.57 1014.45 1014.33 1014.20 1014.06 1013.91 1013.77 1013.65 1013.56 1013.50 1013.47 1013.46 1013.44 1013.40 1013.31 1013.16 1012.95 1012.69 1012.40 1012.11 1011.87 1011.72 1011.69 1011.80 1012.05 1012.45 1012.95 1013.53 1014.13 1014.72 1015.27
1014.29 1014.70 1015.03 1015.28 1015.44 1015.51 1015.52 1015.46 1015.37 1015.26 1015.14 1015.02 1014.89 1014.75 1014.60 1014.43 1014.26 1014.08 1013.91 1013.77 1013.65 1013.57 1013.52 1013.50 1013.48 1013.45 1013.38 1013.26 1013.08 1012.84 1012.57 1012.29 1012.03 1011.84 1011.74 1011.76 1011.91 1012.20 1012.60 1013.10 1013.65 1014.21 1014.75
1014.04 1014.44 1014.80 1015.09 1015.32 1015.48 1015.57 1015.61 1015.61 1015.56 1015.49 1015.39 1015.26 1015.11 1014.94 1014.74 1014.53 1014.32 1014.11 1013.93 1013.77 1013.66 1013.57 1013.52 1013.48 1013.44 1013.38 1013.27 1013.13 1012.93 1012.69 1012.43 1012.18 1011.97 1011.82 1011.77 1011.83 1012.01 1012.31 1012.70 1013.17 1013.67 1014.18
1013.68 1014.09 1014.47 1014.80 1015.10 1015.34 1015.54 1015.69 1015.78 1015.82 1015.81 1015.74 1015.64 1015.49 1015.30 1015.08 1014.84 1014.59 1014.35 1014.13 1013.93 1013.77 1013.64 1013.54 1013.47 1013.40 1013.33 1013.23 1013.10 1012.94 1012.74 1012.51 1012.28 1012.07 1011.90 1011.79 1011.78 1011.86 1012.06 1012.34 1012.71 1013.13 1013.58
1013.28 1013.69 1014.08 1014.46 1014.82 1015.15 1015.44 1015.68 1015.87 1015.99 1016.05 1016.04 1015.96 1015.82 1015.63 1015.41 1015.15 1014.88 1014.61 1014.35 1014.11 1013.91 1013.73 1013.58 1013.46 1013.36 1013.26 1013.15 1013.03 1012.88 1012.71 1012.52 1012.31 1012.12 1011.94 1011.81 1011.74 1011.75 1011.85 1012.03 1012.30 1012.62 1012.99
1012.90 1013.31 1013.72 1014.13 1014.53 1014.92 1015.29 1015.62 1015.88 1016.08 1016.20 1016.24 1016.19 1016.08 1015.90 1015.67 1015.41 1015.13 1014.84 1014.57 1014.30 1014.06 1013.84 1013.64 1013.47 1013.32 1013.18 1013.04 1012.91 1012.77 1012.62 1012.45 1012.28 1012.10 1011.94 1011.80 1011.70 1011.66 1011.68 1011.78 1011.94 1012.17 1012.45
1012.60 1013.02 1013.44 1013.87 1014.30 1014.74 1015.15 1015.54 1015.86 1016.11 1016.28 1016.35 1016.34 1016.24 1016.07 1015.85 1015.59 1015.31 1015.03 1014.75 1014.47 1014.21 1013.96 1013.72 1013.51 1013.31 1013.12 1012.95 1012.79 1012.64 1012.50 1012.35 1012.20 1012.05 1011.91 1011.78 1011.67 1011.60 1011.57 1011.59 1011.67 1011.81 1012.01
1012.44 1012.87 1013.30 1013.73 1014.18 1014.64 1015.09 1015.50 1015.86 1016.13 1016.32 1016.41 1016.41 1016.32 1016.16 1015.94 1015.69 1015.43 1015.15 1014.88 1014.61 1014.34 1014.08 1013.83 1013.58 1013.34 1013.12 1012.91 1012.72 1012.55 1012.39 1012.25 1012.12 1011.99 1011.87 1011.75 1011.65 1011.56 1011.50 1011.48 1011.49 1011.56 1011.66
1012.40 1012.86 1013.30 1013.74 1014.20 1014.67 1015.12 1015.54 1015.91 1016.19 1016.38 1016.46 1016.45 1016.36 1016.19 1015.98 1015.73 1015.48 1015.22 1014.96 1014.71 1014.46 1014.20 1013.95 1013.69 1013.44 1013.19 1012.95 1012.73 1012.53 1012.36 1012.21 1012.07 1011.95 1011.84 1011.74 1011.64 1011.55 1011.47 1011.41 1011.38 1011.38 1011.41
1012.48 1012.96 1013.42 1013.88 1014.35 1014.81 1015.27 1015.68 1016.04 1016.31 1016.48 1016.54 1016.51 1016.39 1016.21 1015.98 1015.73 1015.48 1015.24 1015.00 1014.78 1014.55 1014.33 1014.10 1013.86 1013.61 1013.35 1013.10 1012.85 1012.63 1012.43 1012.25 1012.10 1011.96 1011.84 1011.74 1011.63 1011.53 1011.43 1011.35 1011.28 1011.23 1011.21
1012.60 1013.12 1013.61 1014.10 1014.58 1015.05 1015.50 1015.91 1016.25 1016.50 1016.64 1016.67 1016.61 1016.45 1016.24 1015.98 1015.72 1015.47 1015.23 1015.02 1014.83 1014.64 1014.47 1014.28 1014.07 1013.85 1013.60 1013.35 1013.09 1012.84 1012.61 1012.39 1012.20 1012.03 1011.87 1011.73 1011.60 1011.47 1011.35 1011.23 1011.13 1011.04 1010.97
1012.74 1013.30 1013.82 1014.34 1014.84 1015.33 1015.78 1016.18 1016.51 1016.73 1016.84 1016.84 1016.73 1016.53 1016.28 1015.99 1015.70 1015.44 1015.21 1015.02 1014.86 1014.73 1014.60 1014.47 1014.32 1014.14 1013.93 1013.69 1013.43 1013.15 1012.88 1012.61 1012.35 1012.11 1011.89 1011.69 1011.50 1011.32 1011.16 1011.00 1010.86 1010.74 1010.64
1012.84 1013.44 1014.00 1014.55 1015.08 1015.59 1016.05 1016.45 1016.76 1016.95 1017.03 1016.99 1016.84 1016.61 1016.31 1015.99 1015.68 1015.40 1015.17 1015.00 1014.88 1014.80 1014.74 1014.68 1014.59 1014.47 1014.30 1014.08 1013.82 1013.52 1013.19 1012.86 1012.52 1012.19 1011.87 1011.58 1011.30 1011.04 1010.81 1010.60 1010.41 1010.26 1010.13
1012.89 1013.52 1014.13 1014.71 1015.26 1015.78 1016.25 1016.65 1016.94 1017.12 1017.17 1017.10 1016.91 1016.64 1016.31 1015.96 1015.63 1015.34 1015.12 1014.97 1014.89 1014.86 1014.85 1014.86 1014.83 1014.77 1014.64 1014.45 1014.19 1013.87 1013.49 1013.08 1012.64 1012.20 1011.77 1011.36 1010.97 1010.61 1010.29 1010.01 1009.77 1009.58 1009.44
1012.90 1013.55 1014.18 1014.79 1015.36 1015.89 1016.36 1016.75 1017.03 1017.18 1017.21 1017.11 1016.90 1016.60 1016.25 1015.88 1015.54 1015.26 1015.04 1014.91 1014.86 1014.87 1014.92 1014.98 1015.02 1015.00 1014.91 1014.74 1014.48 1014.13 1013.70 1013.20 1012.67 1012.12 1011.56 1011.02 1010.51 1010.04 1009.62 1009.27 1008.97 1008.74 1008.58
1012.88 1013.55 1014.19 1014.80 1015.38 1015.90 1016.36 1016.73 1016.99 1017.12 1017.12 1017.00 1016.77 1016.46 1016.11 1015.74 1015.41 1015.13 1014.93 1014.82 1014.80 1014.84 1014.93 1015.02 1015.10 1015.11 1015.05 1014.88 1014.61 1014.23 1013.75 1013.19 1012.56 1011.91 1011.24 1010.58 1009.95 1009.38 1008.87 1008.44 1008.09 1007.82 1007.64
Thickness
5783 5781 5779 5776 5771 5767 5763 5760 5756 5753 5750 5747 5744 5742 5740 5739 5738 5737 5735 5733 5733 5733 5733 5735 5733 5734 5734 5733 5733 5733 5733 5732 5733 5731 5728 5729 5731 5730 5730 5731 5733 5733 5732
5778 5775 5773 5771 5768 5764 5761 5758 5754 5751 5747 5744 5742 5740 5739 5737 5736 5735 5732 5731 5731 5731 5732 5730 5731 5731 5731 5730 5730 5729 5730 5731 5731 5729 5726 5723 5724 5724 5728 5728 5729 5729 5729
5774 5772 5769 5767 5765 5761 5759 5757 5752 5748 5744 5742 5740 5738 5735 5732 5731 5730 5730 5728 5727 5727 5727 5727 5727 5728 5729 5728 5727 5727 5726 5726 5728 5729 5726 5721 5719 5721 5723 5724 5725 5725 5726
5773 5770 5767 5764 5762 5759 5757 5753 5749 5744 5741 5740 5738 5734 5730 5728 5727 5727 5726 5725 5724 5724 5724 5724 5723 5724 5726 5725 5725 5726 5725 5724 5725 5726 5725 5725 5725 5720 5717 5718 5721 5722 5721
5771 5767 5764 5761 5759 5757 5754 5750 5745 5741 5738 5736 5734 5731 5729 5727 5726 5724 5722 5721 5721 5721 5721 5721 5720 5720 5722 5722 5722 5722 5722 5723 5723 5723 5723 5721 5721 5722 5718 5714 5715 5718 5720
5768 5765 5763 5759 5756 5754 5751 5747 5742 5738 5735 5732 5729 5726 5724 5722 5720 5719 5719 5719 5719 5719 5718 5718 5717 5717 5718 5718 5718 5718 5719 5719 5720 5721 5721 5720 5719 5717 5717 5714 5712 5713 5716
5765 5761 5758 5755 5751 5748 5745 5742 5737 5733 5731 5728 5725 5722 5720 5718 5716 5716 5716 5716 5717 5716 5714 5715 5713 5713 5713 5714 5715 5714 5715 5715 5715 5715 5717 5718 5718 5718 5716 5714 5711 5711 5713
5762 5758 5755 5751 5748 5744 5740 5737 5733 5728 5726 5723 5720 5718 5716 5716 5715 5713 5713 5713 5713 5713 5711 5711 5710 5710 5710 5711 5711 5712 5711 5710 5710 5711 5712 5713 5715 5715 5714 5713 5710 5707 5708
5758 5756 5753 5749 5745 5741 5737 5733 5728 5724 5721 5719 5716 5713 5711 5710 5709 5708 5708 5710 5708 5709 5708 5707 5706 5706 5706 5706 5707 5707 5706 5706 5707 5708 5708 5709 5711 5711 5711 5711 5711 5707 5703
5754 5752 5749 5745 5741 5738 5734 5730 5725 5721 5717 5714 5712 5710 5706 5705 5704 5704 5702 5702 5703 5703 5703 5703 5702 5702 5702 5702 5702 5703 5702 5702 5702 5703 5703 5704 5708 5707 5708 5708 5709 5708 5706
5748 5746 5743 5740 5736 5733 5730 5725 5720 5716 5712 5710 5706 5703 5701 5700 5699 5698 5698 5697 5697 5698 5698 5698 5698 5699 5698 5698 5698 5698 5698 5698 5698 5699 5700 5700 5702 5703 5704 5704 5704 5704 5703
5743 5740 5737 5734 5730 5726 5724 5720 5716 5712 5708 5705 5701 5698 5696 5694 5692 5691 5691 5691 5691 5692 5693 5694 5694 5695 5694 5694 5694 5694 5695 5694 5695 5695 5696 5696 5698 5697 5699 5699 5699 5699 5699
5736 5734 5729 5726 5723 5720 5717 5714 5711 5707 5704 5700 5696 5693 5690 5688 5686 5685 5685 5686 5686 5687 5688 5689 5689 5690 5690 5690 5690 5690 5691 5691 5691 5692 5692 5692 5692 5692 5694 5694 5695 5695 5696
5729 5725 5722 5719 5716 5713 5710 5707 5705 5703 5700 5696 5692 5688 5685 5682 5680 5679 5680 5680 5681 5681 5682 5684 5685 5685 5685 5686 5686 5686 5687 5687 5688 5688 5688 5689 5689 5689 5690 5690 5690 5690 5689
5720 5717 5714 5711 5709 5706 5704 5702 5699 5696 5694 5691 5687 5683 5680 5677 5675 5674 5674 5675 5675 5676 5677 5678 5679 5680 5680 5680 5680 5681 5683 5682 5683 5684 5685 5685 5685 5684 5685 5687 5686 5685 5685
5713 5710 5707 5704 5701 5699 5697 5695 5693 5690 5688 5685 5682 5680 5676 5673 5671 5670 5669 5669 5669 5670 5671 5672 5673 5674 5675 5672 5671 5672 5676 5677 5678 5678 5680 5681 5681 5679 5678 5678 5678 5678 5679
5707 5704 5701 5697 5694 5692 5690 5688 5687 5685 5683 5680 5677 5675 5672 5669 5667 5667 5665 5664 5664 5665 5665 5666 5667 5668 5667 5665 5665 5665 5669 5672 5673 5673 5674 5677 5678 5676 5676 5674 5672 5673 5672
5699 5697 5695 5692 5689 5687 5684 5682 5681 5679 5677 5675 5672 5670 5668 5666 5663 5662 5660 5660 5660 5660 5660 5661 5662 5662 5661 5659 5659 5659 5663 5666 5667 5667 5668 5669 5669 5670 5668 5670 5670 5670 5670
5693 5692 5690 5687 5684 5682 5680 5677 5674 5673 5671 5669 5667 5665 5664 5661 5659 5657 5655 5655 5654 5655 5656 5656 5657 5656 5655 5652 5652 5652 5657 5660 5661 5662 5663 5663 5663 5660 5659 5661 5663 5664 5665
5687 5685 5684 5681 5677 5675 5674 5671 5669 5667 5665 5663 5661 5660 5659 5656 5653 5651 5650 5650 5649 5650 5651 5651 5651 5650 5650 5646 5646 5645 5653 5654 5656 5656 5657 5655 5654 5652 5651 5653 5655 5656 5658
5680 5678 5676 5673 5671 5669 5667 5664 5662 5660 5659 5658 5656 5654 5653 5651 5649 5647 5646 5645 5645 5645 5645 5644 5644 5644 5643 5641 5639 5639 5644 5648 5649 5651 5652 5652 5646 5645 5644 5645 5648 5649 5649
5671 5670 5667 5665 5663 5661 5659 5657 5655 5654 5653 5652 5649 5647 5646 5646 5646 5642 5641 5640 5639 5640 5639 5638 5638 5639 5637 5635 5634 5633 5634 5637 5641 5643 5645 5644 5639 5637 5637 5638 5639 5639 5640
5663 5662 5659 5657 5655 5654 5653 5650 5649 5648 5646 5645 5642 5641 5640 5640 5639 5638 5636 5635 5634 5636 5636 5635 5634 5634 5634 5631 5629 5628 5629 5630 5633 5636 5635 5633 5632 5631 5632 5632 5632 5632 5635
5655 5654 5652 5650 5649 5648 5646 5645 5643 5642 5640 5638 5636 5636 5635 5634 5634 5633 5633 5631 5631 5631 5630 5629 5629 5628 5628 5628 5627 5626 5626 5625 5627 5629 5628 5626 5625 5626 5627 5628 5628 5629 5630
5648 5647 5645 5644 5642 5641 5640 5639 5638 5636 5634 5632 5631 5631 5631 5630 5627 5627 5626 5625 5624 5623 5622 5623 5623 5622 5621 5618 5615 5617 5620 5620 5622 5620 5623 5625 5626 5626 5626 5626 5625 5625 5624
5640 5639 5638 5637 5636 5635 5633 5633 5632 5630 5628 5627 5626 5627 5626 5625 5625 5623 5621 5616 5615 5613 5612 5611 5611 5613 5611 5609 5608 5608 5608 5608 5609 5612 5617 5619 5620 5621 5621 5620 5618 5618 5617